Domov               UVHVVR             MKGP            O straneh              
ZDRAVSTVENO VARSTVO RASTLIN
  MREŽA AGROMET. POSTAJ
 ► PROGNOSTIČNA OBVESTILA
AGROMETEOROLOŠKI PODATKI -
ARSO
OBVLADOVANJE TVEGANJ ZARADI
NEUGODNIH VREMENSKIH RAZMER
  ► NARAVNE NESREČE
  ► SUŠA/MOČA
  ► NAMAKANJE
  ► ŽLED (gozdarstvo)
KARTOGRAFSKI PRIKAZI
SPLETNE POVEZAVE
PROJEKTI IN PUBLIKACIJE

AGROMETEOROLOŠKA MREŽA: VREMENSKE POSTAJE IN FENOLOŠKA OPAZOVANJA

Pregled podatkov za lokacijo Šentilj, meteorološka postaja 24379

Pregled senzorjev na lokaciji

ID Ime Zadnja
vrednost
Datum
zadnje
spremembe
Tip
senzorja
904 Omočenost lista (U) 0 U 18.1.2018 20:00 A730WET
905 Temperatura 2 m (°C) 5,32 °C 18.1.2018 20:00 Generic -40 - +60 °C
906 Relativna vlaga 2 m (% RH) 43,17 % RH 18.1.2018 20:00 Generic 0 - 100 %
3858 Padavine (mm) 0 mm 18.1.2018 20:00 Generic 0.2 mm

Pregled podatkov zadnjih 24 ur

Zap.
št.
Datum in čas Šentilj
Omočenost
lista
Padavine Relativna
vlaga
2
m
Temperatura
2
m
0 18.1.2018 20:00 0 0 43,17 5,32
1 18.1.2018 19:30 0 0 37,46 6,32
2 18.1.2018 19:00 0 0 39,07 6,01
3 18.1.2018 18:30 0 0 52,58 3,88
4 18.1.2018 18:00 0 0 46,62 4,88
5 18.1.2018 17:30 0 0 48,67 4,96
6 18.1.2018 17:00 0 0 50,53 5,27
7 18.1.2018 16:30 0 0 47,86 6,91
8 18.1.2018 16:00 0 0 49,06 7,79
9 18.1.2018 15:30 0 0 44,35 8,52
10 18.1.2018 15:00 0 0 40,15 8,52
11 18.1.2018 14:30 0 0 41 7,57
12 18.1.2018 14:00 0 0 48,13 6,52
13 18.1.2018 13:30 0 0 52,36 5,57
14 18.1.2018 13:00 0 0 55,41 4,49
15 18.1.2018 12:30 0 0 56,31 4,44
16 18.1.2018 12:00 0 0 59,15 3,71
17 18.1.2018 11:30 0 0 62,12 2,83
18 18.1.2018 11:00 0 0 64,79 2,32
19 18.1.2018 10:30 0 0 65,59 2,12
20 18.1.2018 10:00 0 0 61,86 2,42
21 18.1.2018 09:30 0 0 62,71 1,86
22 18.1.2018 09:00 0 0 73,06 -0,71
23 18.1.2018 08:30 0 0 72,7 -0,98
24 18.1.2018 08:00 0 0 72,97 -1,03
25 18.1.2018 07:30 0 0 73,09 -0,98
26 18.1.2018 07:00 0 0 63,27 0,66
27 18.1.2018 06:30 0 0 58 1,51
28 18.1.2018 06:00 0 0 58,02 1,61
29 18.1.2018 05:30 0 0 61,95 1,12
30 18.1.2018 05:00 0 0 60,68 1,39
31 18.1.2018 04:30 0 0 61,47 1,44
32 18.1.2018 04:00 0 0 64,1 1,25
33 18.1.2018 03:30 0 0 64,22 1,47
34 18.1.2018 03:00 0 0 63,98 1,54
35 18.1.2018 02:30 0 0 65,08 1,37
36 18.1.2018 02:00 0 0 63,86 1,44
37 18.1.2018 01:30 0 0 60,02 2
38 18.1.2018 01:00 0 0 57,44 1,68
39 18.1.2018 00:30 0 0 55,85 1,88
40 18.1.2018 00:00 0 0 54,31 2,08
41 17.1.2018 23:30 0 0 50,82 2,25
42 17.1.2018 23:00 0 0 48,62 2,17
43 17.1.2018 22:30 0 0 48,42 1,81
44 17.1.2018 22:00 0 0 46,79 1,81
45 17.1.2018 21:30 0 0 47,94 1,54
46 17.1.2018 21:00 0 0 46,98 1,59
© 2011 Ministrstvo za kmetijstvo, gozdarstvo in prehrano. Vse pravice pridržane.